time, Switch, Flow(0), Analog(2)
yyyy/mm/dd HH:MM:SS.fff, True=FILTERED|False=TOTAL, L/min, V
2023/07/11 01:00:00.441, True, 4.636, 0.119554
2023/07/11 01:00:00.937, True, 4.717, 0.120317
2023/07/11 01:00:01.441, True, 4.642, 0.120089
2023/07/11 01:00:01.937, True, 4.717, 0.118486
2023/07/11 01:00:02.440, True, 4.650, 0.119631
2023/07/11 01:00:02.945, True, 4.635, 0.117800
2023/07/11 01:00:03.441, True, 4.717, 0.119631
2023/07/11 01:00:03.945, True, 3.980, 0.120089
2023/07/11 01:00:04.450, True, 3.315, 0.120623
2023/07/11 01:00:04.953, True, 3.321, 0.116121
2023/07/11 01:00:05.449, True, 3.701, 0.119783
2023/07/11 01:00:05.953, True, 2.985, 0.119554
2023/07/11 01:00:06.457, True, 3.648, 0.120241
2023/07/11 01:00:06.953, True, 3.370, 0.117494
2023/07/11 01:00:07.457, True, 3.647, 0.120165
2023/07/11 01:00:07.961, True, 3.316, 0.117113
2023/07/11 01:00:08.457, True, 3.707, 0.118486
2023/07/11 01:00:08.961, True, 3.315, 0.119707
2023/07/11 01:00:09.457, True, 3.707, 0.122148
2023/07/11 01:00:09.961, True, 3.319, 0.118639
2023/07/11 01:00:10.465, True, 3.313, 0.119478
2023/07/11 01:00:10.961, True, 3.368, 0.117723
2023/07/11 01:00:11.465, True, 3.316, 0.120546
2023/07/11 01:00:11.970, True, 3.648, 0.119249
2023/07/11 01:00:12.465, True, 3.369, 0.118791
2023/07/11 01:00:12.969, True, 3.648, 0.121309
2023/07/11 01:00:13.473, True, 3.647, 0.118868
2023/07/11 01:00:13.969, True, 3.370, 0.120012
2023/07/11 01:00:14.473, True, 3.647, 0.120928
2023/07/11 01:00:14.977, True, 3.647, 0.119783
2023/07/11 01:00:15.473, True, 3.369, 0.119783
2023/07/11 01:00:15.977, True, 3.317, 0.123903
2023/07/11 01:00:16.473, True, 3.369, 0.117342
2023/07/11 01:00:16.977, True, 3.648, 0.119631
2023/07/11 01:00:17.481, True, 3.315, 0.118105
2023/07/11 01:00:17.977, True, 3.369, 0.120317
2023/07/11 01:00:18.481, True, 3.648, 0.122225
2023/07/11 01:00:18.985, True, 3.316, 0.119020
2023/07/11 01:00:19.489, True, 3.647, 0.119554
2023/07/11 01:00:19.993, True, 3.316, 0.119402
2023/07/11 01:00:20.489, True, 3.706, 0.119097
2023/07/11 01:00:20.994, True, 3.649, 0.121386
2023/07/11 01:00:21.497, True, 3.315, 0.120394
2023/07/11 01:00:21.993, True, 3.370, 0.120394
2023/07/11 01:00:22.497, True, 3.650, 0.118791
2023/07/11 01:00:23.001, True, 3.315, 0.119554
2023/07/11 01:00:23.497, True, 3.369, 0.121691
2023/07/11 01:00:24.001, True, 3.650, 0.120165
2023/07/11 01:00:24.505, True, 3.645, 0.122377
2023/07/11 01:00:25.001, True, 3.370, 0.122835
2023/07/11 01:00:25.505, True, 3.650, 0.121309
2023/07/11 01:00:26.009, True, 3.316, 0.121309
2023/07/11 01:00:26.513, True, 3.648, 0.122454
2023/07/11 01:00:27.009, True, 3.370, 0.123903
2023/07/11 01:00:27.513, True, 3.313, 0.123598
2023/07/11 01:00:28.017, True, 3.318, 0.124285
2023/07/11 01:00:28.513, True, 3.704, 0.125353
2023/07/11 01:00:29.017, True, 3.316, 0.123369
2023/07/11 01:00:29.521, True, 3.651, 0.122377
2023/07/11 01:00:30.017, True, 3.366, 0.122377
2023/07/11 01:00:30.521, True, 3.648, 0.125048
2023/07/11 01:00:31.025, True, 3.321, 0.127947
2023/07/11 01:00:31.521, True, 3.701, 0.124819
2023/07/11 01:00:32.025, True, 3.647, 0.126040
2023/07/11 01:00:32.529, True, 3.648, 0.124132
2023/07/11 01:00:33.025, True, 3.370, 0.123293
2023/07/11 01:00:33.529, True, 3.646, 0.123445
2023/07/11 01:00:34.033, True, 3.316, 0.123674
2023/07/11 01:00:34.529, True, 3.369, 0.125353
2023/07/11 01:00:35.033, True, 3.648, 0.123217
2023/07/11 01:00:35.537, True, 3.316, 0.123980
2023/07/11 01:00:36.033, True, 3.707, 0.126879
2023/07/11 01:00:36.537, True, 3.315, 0.124285
2023/07/11 01:00:37.041, True, 3.317, 0.123598
2023/07/11 01:00:37.537, True, 3.372, 0.123293
2023/07/11 01:00:38.041, True, 3.644, 0.125505
2023/07/11 01:00:38.545, True, 3.648, 0.123674
2023/07/11 01:00:39.041, True, 3.370, 0.123445
2023/07/11 01:00:39.545, True, 3.651, 0.124590
2023/07/11 01:00:40.049, True, 3.313, 0.125353
2023/07/11 01:00:40.545, True, 3.373, 0.124819
2023/07/11 01:00:41.049, True, 3.643, 0.123369
2023/07/11 01:00:41.553, True, 3.317, 0.125582
2023/07/11 01:00:42.049, True, 3.373, 0.125658
2023/07/11 01:00:42.553, True, 3.643, 0.125429
2023/07/11 01:00:43.057, True, 3.318, 0.122606
2023/07/11 01:00:43.553, True, 3.367, 0.126650
2023/07/11 01:00:44.057, True, 3.648, 0.125353
2023/07/11 01:00:44.561, True, 3.319, 0.124056
2023/07/11 01:00:45.057, True, 3.367, 0.124666
2023/07/11 01:00:45.561, True, 3.648, 0.123445
2023/07/11 01:00:46.065, True, 3.647, 0.124208
2023/07/11 01:00:46.561, True, 3.374, 0.124132
2023/07/11 01:00:47.065, True, 3.644, 0.123293
2023/07/11 01:00:47.569, True, 3.320, 0.125505
2023/07/11 01:00:48.064, True, 3.365, 0.124514
2023/07/11 01:00:48.569, True, 3.315, 0.123140
2023/07/11 01:00:49.073, True, 3.319, 0.124437
2023/07/11 01:00:49.570, True, 3.372, 0.123140
2023/07/11 01:00:50.073, True, 3.310, 0.122911
2023/07/11 01:00:50.577, True, 2.990, 0.122759
2023/07/11 01:00:51.073, True, 3.370, 0.125277
2023/07/11 01:00:51.577, True, 3.644, 0.123369
2023/07/11 01:00:52.081, True, 3.319, 0.124437
2023/07/11 01:00:52.576, True, 3.365, 0.125963
2023/07/11 01:00:53.081, True, 3.314, 0.124514
2023/07/11 01:00:53.585, True, 3.316, 0.125353
2023/07/11 01:00:54.081, True, 3.370, 0.124056
2023/07/11 01:00:54.585, True, 3.315, 0.125277
2023/07/11 01:00:55.089, True, 3.647, 0.126879
2023/07/11 01:00:55.585, True, 3.707, 0.124666
2023/07/11 01:00:56.089, True, 3.318, 0.123751
2023/07/11 01:00:56.593, True, 3.646, 0.122148
2023/07/11 01:00:57.089, True, 3.370, 0.126040
2023/07/11 01:00:57.593, True, 3.647, 0.126040
2023/07/11 01:00:58.097, True, 3.652, 0.124895
2023/07/11 01:00:58.593, True, 3.704, 0.122530
2023/07/11 01:00:59.097, True, 3.317, 0.124514
2023/07/11 01:00:59.601, True, 3.644, 0.121920
2023/07/11 01:01:00.097, True, 3.713, 0.124056
2023/07/11 01:01:00.601, True, 3.641, 0.122530
2023/07/11 01:01:01.105, True, 3.648, 0.122683
2023/07/11 01:01:01.601, True, 3.369, 0.123598
2023/07/11 01:01:02.105, True, 3.648, 0.126116
2023/07/11 01:01:02.609, True, 3.316, 0.121996
2023/07/11 01:01:03.105, True, 3.712, 0.123064
2023/07/11 01:01:03.609, True, 3.316, 0.124514
2023/07/11 01:01:04.113, True, 3.647, 0.124056
2023/07/11 01:01:04.609, True, 3.366, 0.121538
2023/07/11 01:01:05.113, True, 3.648, 0.123445
2023/07/11 01:01:05.609, True, 3.369, 0.124743
2023/07/11 01:01:06.113, True, 3.648, 0.124437
2023/07/11 01:01:06.617, True, 3.316, 0.123064
2023/07/11 01:01:07.113, True, 3.706, 0.121309
2023/07/11 01:01:07.617, True, 3.316, 0.122072
2023/07/11 01:01:08.121, True, 3.655, 0.121004
2023/07/11 01:01:08.625, True, 3.310, 0.123217
2023/07/11 01:01:09.121, True, 3.706, 0.123522
2023/07/11 01:01:09.625, True, 3.316, 0.123064
2023/07/11 01:01:10.121, True, 3.370, 0.122072
2023/07/11 01:01:10.625, True, 3.647, 0.123445
2023/07/11 01:01:11.129, True, 3.315, 0.121996
2023/07/11 01:01:11.633, True, 3.648, 0.122988
2023/07/11 01:01:12.129, True, 3.370, 0.122454
2023/07/11 01:01:12.633, True, 3.316, 0.124743
2023/07/11 01:01:13.137, True, 3.316, 0.124285
2023/07/11 01:01:13.633, True, 3.369, 0.122988
2023/07/11 01:01:14.137, True, 3.316, 0.123369
2023/07/11 01:01:14.641, True, 3.316, 0.123293
2023/07/11 01:01:15.137, True, 3.369, 0.122988
2023/07/11 01:01:15.641, True, 3.647, 0.121843
2023/07/11 01:01:16.137, True, 3.376, 0.121309
2023/07/11 01:01:16.641, True, 3.641, 0.121614
2023/07/11 01:01:17.145, True, 3.648, 0.123445
2023/07/11 01:01:17.641, True, 3.706, 0.122606
2023/07/11 01:01:18.145, True, 3.650, 0.123445
2023/07/11 01:01:18.649, True, 3.316, 0.124056
2023/07/11 01:01:19.146, True, 3.705, 0.120775
2023/07/11 01:01:19.649, True, 3.319, 0.120928
2023/07/11 01:01:20.153, True, 3.644, 0.120928
2023/07/11 01:01:20.649, True, 3.710, 0.122301
2023/07/11 01:01:21.154, True, 3.644, 0.123445
2023/07/11 01:01:21.657, True, 3.316, 0.120775
2023/07/11 01:01:22.153, True, 3.707, 0.123598
2023/07/11 01:01:22.657, True, 3.647, 0.123064
2023/07/11 01:01:23.161, True, 3.316, 0.122225
2023/07/11 01:01:23.658, True, 3.712, 0.120699
2023/07/11 01:01:24.161, True, 2.980, 0.121386
2023/07/11 01:01:24.665, True, 3.322, 0.122911
2023/07/11 01:01:25.162, True, 3.366, 0.126268
2023/07/11 01:01:25.665, True, 3.644, 0.124285
2023/07/11 01:01:26.169, True, 3.316, 0.124056
2023/07/11 01:01:26.665, True, 3.373, 0.124285
2023/07/11 01:01:27.169, True, 3.645, 0.123751
2023/07/11 01:01:27.673, True, 3.316, 0.123903
2023/07/11 01:01:28.169, True, 3.369, 0.122683
2023/07/11 01:01:28.674, True, 3.649, 0.121843
2023/07/11 01:01:29.178, True, 3.315, 0.123445
2023/07/11 01:01:29.674, True, 3.369, 0.122835
2023/07/11 01:01:30.177, True, 3.316, 0.120241
2023/07/11 01:01:30.673, True, 3.371, 0.123522
2023/07/11 01:01:31.177, True, 3.315, 0.124056
2023/07/11 01:01:31.681, True, 3.647, 0.121843
2023/07/11 01:01:32.186, True, 3.316, 0.121920
2023/07/11 01:01:32.681, True, 3.706, 0.121614
2023/07/11 01:01:33.185, True, 3.316, 0.123369
2023/07/11 01:01:33.681, True, 3.706, 0.121614
2023/07/11 01:01:34.185, True, 3.316, 0.123598
2023/07/11 01:01:34.690, True, 3.649, 0.121309
2023/07/11 01:01:35.185, True, 3.372, 0.123522
2023/07/11 01:01:35.689, True, 3.644, 0.123751
2023/07/11 01:01:36.193, True, 3.648, 0.121920
2023/07/11 01:01:36.698, True, 3.316, 0.123217
2023/07/11 01:01:37.193, True, 3.706, 0.120089
2023/07/11 01:01:37.697, True, 3.649, 0.122301
2023/07/11 01:01:38.201, True, 3.647, 0.122148
2023/07/11 01:01:38.697, True, 3.369, 0.122530
2023/07/11 01:01:39.202, True, 3.648, 0.122911
2023/07/11 01:01:39.705, True, 3.648, 0.120470
2023/07/11 01:01:40.202, True, 3.369, 0.123217
2023/07/11 01:01:40.705, True, 3.315, 0.121309
2023/07/11 01:01:41.202, True, 3.370, 0.120623
2023/07/11 01:01:41.705, True, 3.647, 0.122835
2023/07/11 01:01:42.209, True, 3.316, 0.121309
2023/07/11 01:01:42.713, True, 3.316, 0.122225
2023/07/11 01:01:43.210, True, 3.370, 0.120775
2023/07/11 01:01:43.713, True, 3.316, 0.121080
2023/07/11 01:01:44.216, True, 3.654, 0.123064
2023/07/11 01:01:44.714, True, 3.363, 0.122454
2023/07/11 01:01:45.217, True, 3.316, 0.121996
2023/07/11 01:01:45.713, True, 3.707, 0.122377
2023/07/11 01:01:46.217, True, 3.316, 0.122377
2023/07/11 01:01:46.721, True, 3.648, 0.120470
2023/07/11 01:01:47.218, True, 3.706, 0.122683
2023/07/11 01:01:47.721, True, 3.320, 0.121386
2023/07/11 01:01:48.225, True, 3.643, 0.122377
2023/07/11 01:01:48.729, True, 3.317, 0.121996
2023/07/11 01:01:49.225, True, 3.369, 0.120241
2023/07/11 01:01:49.729, True, 3.647, 0.121386
2023/07/11 01:01:50.225, True, 3.707, 0.121386
2023/07/11 01:01:50.729, True, 3.316, 0.120470
2023/07/11 01:01:51.233, True, 3.648, 0.119936
2023/07/11 01:01:51.729, True, 3.369, 0.121157
2023/07/11 01:01:52.233, True, 3.648, 0.122988
2023/07/11 01:01:52.738, True, 3.647, 0.119707
2023/07/11 01:01:53.234, True, 3.370, 0.119936
2023/07/11 01:01:53.737, True, 3.315, 0.122683
2023/07/11 01:01:54.242, True, 3.316, 0.123293
2023/07/11 01:01:54.745, True, 3.648, 0.121538
2023/07/11 01:01:55.241, True, 3.369, 0.120241
2023/07/11 01:01:55.745, True, 3.316, 0.122606
2023/07/11 01:01:56.241, True, 3.707, 0.119860
2023/07/11 01:01:56.745, True, 3.316, 0.122225
2023/07/11 01:01:57.249, True, 3.648, 0.119783
2023/07/11 01:01:57.745, True, 3.373, 0.122759
2023/07/11 01:01:58.249, True, 3.314, 0.121843
2023/07/11 01:01:58.745, True, 3.706, 0.120394
2023/07/11 01:01:59.250, True, 3.316, 0.120241
2023/07/11 01:01:59.753, True, 3.319, 0.120623
2023/07/11 01:02:00.257, True, 3.315, 0.120775
2023/07/11 01:02:00.753, True, 3.367, 0.123140
2023/07/11 01:02:01.258, True, 3.316, 0.122454
2023/07/11 01:02:01.761, True, 3.316, 0.120775
2023/07/11 01:02:02.258, True, 3.370, 0.122911
2023/07/11 01:02:02.761, True, 3.315, 0.121157
2023/07/11 01:02:03.266, True, 3.648, 0.121004
2023/07/11 01:02:03.761, True, 3.370, 0.122148
2023/07/11 01:02:04.265, True, 3.648, 0.119860
2023/07/11 01:02:04.769, True, 3.315, 0.119402
2023/07/11 01:02:05.266, True, 3.707, 0.121004
2023/07/11 01:02:05.769, True, 3.315, 0.123293
2023/07/11 01:02:06.273, True, 3.316, 0.119936
2023/07/11 01:02:06.770, True, 3.370, 0.120851
2023/07/11 01:02:07.273, True, 3.321, 0.121157
2023/07/11 01:02:07.777, True, 3.642, 0.121462
2023/07/11 01:02:08.273, True, 3.370, 0.120546
2023/07/11 01:02:08.777, True, 2.984, 0.122148
2023/07/11 01:02:09.282, True, 3.316, 0.120928
2023/07/11 01:02:09.777, True, 3.370, 0.121004
2023/07/11 01:02:10.281, True, 3.648, 0.122225
2023/07/11 01:02:10.786, True, 3.318, 0.120851
2023/07/11 01:02:11.289, True, 3.314, 0.120699
2023/07/11 01:02:11.785, True, 3.035, 0.120317
2023/07/11 01:02:12.290, True, 3.312, 0.120851
2023/07/11 01:02:12.793, True, 3.648, 0.122911
2023/07/11 01:02:13.290, True, 3.369, 0.120394
2023/07/11 01:02:13.793, True, 3.316, 0.121462
2023/07/11 01:02:14.297, True, 3.316, 0.122148
2023/07/11 01:02:14.793, True, 3.707, 0.121462
2023/07/11 01:02:15.297, True, 3.647, 0.122148
2023/07/11 01:02:15.801, True, 3.317, 0.118715
2023/07/11 01:02:16.297, True, 3.706, 0.120165
2023/07/11 01:02:16.801, True, 3.647, 0.120165
2023/07/11 01:02:17.298, True, 3.369, 0.120394
2023/07/11 01:02:17.801, True, 3.316, 0.123140
2023/07/11 01:02:18.305, True, 3.321, 0.120317
2023/07/11 01:02:18.809, True, 3.315, 0.122911
2023/07/11 01:02:19.304, True, 3.365, 0.119249
2023/07/11 01:02:19.809, True, 3.647, 0.122148
2023/07/11 01:02:20.313, True, 3.316, 0.122072
2023/07/11 01:02:20.809, True, 3.376, 0.119402
2023/07/11 01:02:21.313, True, 3.310, 0.119631
2023/07/11 01:02:21.817, True, 3.317, 0.120317
2023/07/11 01:02:22.314, True, 3.706, 0.120394
2023/07/11 01:02:22.817, True, 3.316, 0.120470
2023/07/11 01:02:23.321, True, 3.648, 0.121843
2023/07/11 01:02:23.817, True, 3.369, 0.121614
2023/07/11 01:02:24.321, True, 3.651, 0.124285
2023/07/11 01:02:24.817, True, 3.366, 0.123293
2023/07/11 01:02:25.321, True, 3.316, 0.120317
2023/07/11 01:02:25.826, True, 3.320, 0.120089
2023/07/11 01:02:26.321, True, 3.368, 0.121004
2023/07/11 01:02:26.826, True, 3.644, 0.120241
2023/07/11 01:02:27.329, True, 3.321, 0.121462
2023/07/11 01:02:27.825, True, 3.372, 0.120317
2023/07/11 01:02:28.330, True, 3.314, 0.120623
2023/07/11 01:02:28.833, True, 3.316, 0.120241
2023/07/11 01:02:29.338, True, 3.646, 0.121996
2023/07/11 01:02:29.834, True, 3.031, 0.120317
2023/07/11 01:02:30.337, True, 3.313, 0.119936
2023/07/11 01:02:30.841, True, 3.316, 0.120165
2023/07/11 01:02:31.338, True, 3.375, 0.122301
2023/07/11 01:02:31.841, True, 3.648, 0.121233
2023/07/11 01:02:32.345, True, 3.311, 0.121004
2023/07/11 01:02:32.849, True, 3.648, 0.121004
2023/07/11 01:02:33.345, True, 3.369, 0.119402
2023/07/11 01:02:33.849, True, 3.648, 0.121309
2023/07/11 01:02:34.346, True, 3.369, 0.121233
2023/07/11 01:02:34.849, True, 3.648, 0.120241
2023/07/11 01:02:35.353, True, 3.317, 0.119707
2023/07/11 01:02:35.850, True, 3.369, 0.121004
2023/07/11 01:02:36.353, True, 3.646, 0.120928
2023/07/11 01:02:36.858, True, 3.317, 0.120623
2023/07/11 01:02:37.353, True, 3.707, 0.122683
2023/07/11 01:02:37.857, True, 3.648, 0.118944
2023/07/11 01:02:38.353, True, 3.368, 0.121920
2023/07/11 01:02:38.857, True, 3.650, 0.121996
2023/07/11 01:02:39.362, True, 3.651, 0.119249
2023/07/11 01:02:39.866, True, 3.311, 0.119554
2023/07/11 01:02:40.362, True, 3.707, 0.120775
2023/07/11 01:02:40.865, True, 3.315, 0.119402
2023/07/11 01:02:41.361, True, 3.706, 0.122301
2023/07/11 01:02:41.866, True, 3.322, 0.119097
2023/07/11 01:02:42.370, True, 3.310, 0.122072
2023/07/11 01:02:42.866, True, 3.707, 0.120317
2023/07/11 01:02:43.370, True, 3.316, 0.121843
2023/07/11 01:02:43.874, True, 3.647, 0.120165
2023/07/11 01:02:44.369, True, 3.707, 0.117647
2023/07/11 01:02:44.873, True, 3.316, 0.119249
2023/07/11 01:02:45.377, True, 3.316, 0.121843
2023/07/11 01:02:45.873, True, 3.369, 0.119936
2023/07/11 01:02:46.377, True, 3.654, 0.122530
2023/07/11 01:02:46.881, True, 3.311, 0.118791
2023/07/11 01:02:47.378, True, 3.369, 0.120317
2023/07/11 01:02:47.881, True, 3.648, 0.119707
2023/07/11 01:02:48.386, True, 3.316, 0.120699
2023/07/11 01:02:48.882, True, 3.370, 0.120241
2023/07/11 01:02:49.385, True, 3.316, 0.121614
2023/07/11 01:02:49.889, True, 3.316, 0.121386
2023/07/11 01:02:50.386, True, 3.370, 0.119631
2023/07/11 01:02:50.889, True, 3.322, 0.119402
2023/07/11 01:02:51.386, True, 3.363, 0.121996
2023/07/11 01:02:51.889, True, 3.648, 0.120546
2023/07/11 01:02:52.393, True, 3.320, 0.121004
2023/07/11 01:02:52.889, True, 3.702, 0.121614
2023/07/11 01:02:53.394, True, 3.316, 0.120546
2023/07/11 01:02:53.897, True, 3.647, 0.120317
2023/07/11 01:02:54.393, True, 3.371, 0.122072
2023/07/11 01:02:54.897, True, 3.315, 0.119631
2023/07/11 01:02:55.401, True, 3.318, 0.117952
2023/07/11 01:02:55.898, True, 3.367, 0.120775
2023/07/11 01:02:56.402, True, 3.316, 0.120546
2023/07/11 01:02:56.905, True, 3.316, 0.118257
2023/07/11 01:02:57.401, True, 3.707, 0.119936
2023/07/11 01:02:57.905, True, 3.647, 0.119631
2023/07/11 01:02:58.410, True, 3.319, 0.119173
2023/07/11 01:02:58.905, True, 3.703, 0.120546
2023/07/11 01:02:59.409, True, 3.317, 0.117037
2023/07/11 01:02:59.913, True, 3.315, 0.122072
2023/07/11 01:03:00.417, True, 3.647, 0.120165
2023/07/11 01:03:00.913, True, 3.707, 0.119707
2023/07/11 01:03:01.417, True, 3.316, 0.121614
2023/07/11 01:03:01.922, True, 3.648, 0.120470
2023/07/11 01:03:02.418, True, 3.369, 0.119249
2023/07/11 01:03:02.921, True, 3.648, 0.119478
2023/07/11 01:03:03.426, True, 3.316, 0.116579
2023/07/11 01:03:03.921, True, 3.370, 0.119478
2023/07/11 01:03:04.425, True, 3.650, 0.119554
2023/07/11 01:03:04.929, True, 3.313, 0.119173
2023/07/11 01:03:05.425, True, 3.706, 0.121004
2023/07/11 01:03:05.929, True, 3.317, 0.119860
2023/07/11 01:03:06.433, True, 3.646, 0.118334
2023/07/11 01:03:06.929, True, 3.370, 0.119249
2023/07/11 01:03:07.433, True, 3.321, 0.121691
2023/07/11 01:03:07.938, True, 3.311, 0.120546
2023/07/11 01:03:08.433, True, 3.373, 0.119860
2023/07/11 01:03:08.937, True, 3.314, 0.122454
2023/07/11 01:03:09.441, True, 3.647, 0.121767
2023/07/11 01:03:09.938, True, 3.370, 0.119936
2023/07/11 01:03:10.441, True, 3.316, 0.118791
2023/07/11 01:03:10.945, True, 3.316, 0.119326
2023/07/11 01:03:11.441, True, 3.706, 0.121996
2023/07/11 01:03:11.945, True, 3.320, 0.119326
2023/07/11 01:03:12.449, True, 3.313, 0.121004
2023/07/11 01:03:12.946, True, 3.368, 0.120165
2023/07/11 01:03:13.449, True, 3.655, 0.118868
2023/07/11 01:03:13.954, True, 3.308, 0.121843
2023/07/11 01:03:14.449, True, 3.371, 0.118563
2023/07/11 01:03:14.954, True, 3.647, 0.118029
2023/07/11 01:03:15.458, True, 3.653, 0.120699
2023/07/11 01:03:15.953, True, 3.700, 0.119936
2023/07/11 01:03:16.458, True, 3.648, 0.119631
2023/07/11 01:03:16.962, True, 3.316, 0.120089
2023/07/11 01:03:17.458, True, 3.706, 0.120623
2023/07/11 01:03:17.962, True, 3.316, 0.119936
2023/07/11 01:03:18.465, True, 3.648, 0.120546
2023/07/11 01:03:18.961, True, 3.711, 0.121080
2023/07/11 01:03:19.465, True, 3.643, 0.121462
2023/07/11 01:03:19.969, True, 3.647, 0.118486
2023/07/11 01:03:20.466, True, 3.373, 0.121386
2023/07/11 01:03:20.969, True, 3.645, 0.121538
2023/07/11 01:03:21.474, True, 3.647, 0.120623
2023/07/11 01:03:21.969, True, 3.369, 0.120623
2023/07/11 01:03:22.474, True, 3.316, 0.118181
2023/07/11 01:03:22.978, True, 3.322, 0.118181
2023/07/11 01:03:23.474, True, 3.364, 0.118944
2023/07/11 01:03:23.978, True, 3.651, 0.119860
2023/07/11 01:03:24.482, True, 3.313, 0.119707
2023/07/11 01:03:24.977, True, 3.370, 0.121996
2023/07/11 01:03:25.482, True, 3.315, 0.119631
2023/07/11 01:03:25.977, True, 3.370, 0.120241
2023/07/11 01:03:26.481, True, 3.317, 0.119249
2023/07/11 01:03:26.985, True, 3.316, 0.119173
2023/07/11 01:03:27.489, True, 3.646, 0.119631
2023/07/11 01:03:27.985, True, 3.370, 0.121538
2023/07/11 01:03:28.489, True, 3.315, 0.119860
2023/07/11 01:03:28.993, True, 3.648, 0.118944
2023/07/11 01:03:29.489, True, 3.707, 0.117342
2023/07/11 01:03:29.993, True, 3.316, 0.120317
2023/07/11 01:03:30.498, True, 3.648, 0.119783
2023/07/11 01:03:30.993, True, 3.371, 0.118410
2023/07/11 01:03:31.497, True, 3.314, 0.120089
2023/07/11 01:03:32.001, True, 3.319, 0.119173
2023/07/11 01:03:32.497, True, 3.707, 0.119249
2023/07/11 01:03:33.001, True, 3.314, 0.119249
2023/07/11 01:03:33.506, True, 3.322, 0.121462
2023/07/11 01:03:34.001, True, 3.027, 0.121233
2023/07/11 01:03:34.505, True, 3.316, 0.120775
2023/07/11 01:03:35.009, True, 3.648, 0.119402
2023/07/11 01:03:35.505, True, 3.370, 0.119097
2023/07/11 01:03:36.010, True, 3.316, 0.121004
2023/07/11 01:03:36.514, True, 3.647, 0.119326
2023/07/11 01:03:37.010, True, 3.370, 0.121538
2023/07/11 01:03:37.514, True, 3.315, 0.119326
2023/07/11 01:03:38.009, True, 3.370, 0.119020
2023/07/11 01:03:38.513, True, 3.647, 0.121004
2023/07/11 01:03:39.018, True, 3.317, 0.119402
2023/07/11 01:03:39.513, True, 3.706, 0.119326
2023/07/11 01:03:40.017, True, 3.315, 0.121080
2023/07/11 01:03:40.521, True, 3.648, 0.119249
2023/07/11 01:03:41.018, True, 3.370, 0.119478
2023/07/11 01:03:41.521, True, 3.315, 0.119097
2023/07/11 01:03:42.025, True, 3.647, 0.119936
2023/07/11 01:03:42.521, True, 3.371, 0.118486
2023/07/11 01:03:43.026, True, 3.650, 0.118868
2023/07/11 01:03:43.529, True, 3.313, 0.119478
2023/07/11 01:03:44.026, True, 3.706, 0.117189
2023/07/11 01:03:44.530, True, 3.648, 0.121614
2023/07/11 01:03:45.033, True, 3.647, 0.120317
2023/07/11 01:03:45.530, True, 3.369, 0.118563
2023/07/11 01:03:46.033, True, 3.317, 0.119173
2023/07/11 01:03:46.538, True, 3.647, 0.120165
2023/07/11 01:03:47.034, True, 3.371, 0.121614
2023/07/11 01:03:47.538, True, 3.314, 0.121538
2023/07/11 01:03:48.033, True, 3.707, 0.120165
2023/07/11 01:03:48.538, True, 3.318, 0.120012
2023/07/11 01:03:49.041, True, 3.646, 0.121614
2023/07/11 01:03:49.546, True, 3.315, 0.120241
2023/07/11 01:03:50.042, True, 3.370, 0.119631
2023/07/11 01:03:50.545, True, 3.648, 0.119860
2023/07/11 01:03:51.049, True, 3.316, 0.121767
2023/07/11 01:03:51.546, True, 3.706, 0.120241
2023/07/11 01:03:52.049, True, 3.316, 0.117723
2023/07/11 01:03:52.553, True, 3.649, 0.120928
2023/07/11 01:03:53.049, True, 3.706, 0.120165
2023/07/11 01:03:53.553, True, 3.317, 0.120394
2023/07/11 01:03:54.057, True, 3.647, 0.120317
2023/07/11 01:03:54.553, True, 3.707, 0.119554
2023/07/11 01:03:55.058, True, 3.315, 0.116579
2023/07/11 01:03:55.561, True, 3.648, 0.119631
2023/07/11 01:03:56.057, True, 3.032, 0.119860
2023/07/11 01:03:56.561, True, 3.648, 0.120012
2023/07/11 01:03:57.065, True, 3.322, 0.121080
2023/07/11 01:03:57.561, True, 3.370, 0.117952
2023/07/11 01:03:58.065, True, 3.647, 0.120775
2023/07/11 01:03:58.570, True, 3.642, 0.119936
2023/07/11 01:03:59.065, True, 3.376, 0.121080
2023/07/11 01:03:59.569, True, 3.309, 0.120470
2023/07/11 01:04:00.074, True, 3.655, 0.118715
2023/07/11 01:04:00.570, True, 3.364, 0.117037
2023/07/11 01:04:01.074, True, 3.315, 0.123903
2023/07/11 01:04:01.578, True, 3.317, 0.121157
2023/07/11 01:04:02.074, True, 3.369, 0.120699
2023/07/11 01:04:02.577, True, 3.317, 0.121843
2023/07/11 01:04:03.081, True, 3.648, 0.120012
2023/07/11 01:04:03.577, True, 3.374, 0.118563
2023/07/11 01:04:04.081, True, 3.643, 0.119860
2023/07/11 01:04:04.585, True, 3.648, 0.119097
2023/07/11 01:04:05.081, True, 3.368, 0.120546
2023/07/11 01:04:05.586, True, 3.651, 0.118257
2023/07/11 01:04:06.090, True, 3.317, 0.118868
2023/07/11 01:04:06.585, True, 3.704, 0.119249
2023/07/11 01:04:07.089, True, 3.642, 0.119783
2023/07/11 01:04:07.594, True, 3.318, 0.118944
2023/07/11 01:04:08.089, True, 3.370, 0.119783
2023/07/11 01:04:08.594, True, 3.316, 0.119249
2023/07/11 01:04:09.098, True, 3.319, 0.119326
2023/07/11 01:04:09.594, True, 3.703, 0.120241